Regional Weather Roundup
Issued by NWS Cleveland, OH

Home | Current Version | Previous Version | Graphics & Text | Print | Product List | Glossary On
Versions: 1 2 3 4 5 6 7 8 9 10 11 12 13 14 15 16 17 18 19 20 21 22 23 24 25 26 27 28 29 30 31 32 33 34 35 36 37 38 39 40 41 42 43 44 45 46 47 48 49 50
000
ASUS41 KCLE 251200
RWRCLE
OHIO REGIONAL WEATHER ROUNDUP
NATIONAL WEATHER SERVICE WILMINGTON, OH
800 AM EDT FRI JUL 25 2014

NOTE: "FAIR" INDICATES FEW OR NO CLOUDS BELOW 12,000 FEET WITH NO
SIGNIFICANT WEATHER AND/OR OBSTRUCTIONS TO VISIBILITY.

OHZ001>008-015>018-024>027-034-035-043-044-251300-
   NORTHWEST OHIO

CITY           SKY/WX    TMP DP  RH WIND       PRES   REMARKS
DEFIANCE       CLOUDY    57  53  86 SW5       30.12R
FINDLAY        SUNNY     57  53  86 CALM      30.11R
TOLEDO EXPRESS SUNNY     56  53  90 CALM      30.11R
TOLEDO METCALF SUNNY     58  51  78 SW3       30.11R
LIMA           SUNNY     57  52  83 SW3       30.12S
$$

OHZ009>014-019>023-028>033-038-089-251300-
   NORTHEAST OHIO

CITY           SKY/WX    TMP DP  RH WIND       PRES   REMARKS
CLE-HOPKINS    MOSUNNY   58  52  80 CALM      30.12S
CLE-LAKEFRONT  SUNNY     62  51  67 S8        30.09S
CUY CO. ARPT   MOSUNNY   63  59  88 S5        30.11S
LORAIN-ELYRIA  SUNNY     60  53  77 W3        30.12R
ASHTABULA      SUNNY     55  52  89 CALM      30.12R
AKRON-CANTON   MOSUNNY   61  52  72 CALM      30.12R
WOOSTER        NOT AVBL
MANSFIELD      SUNNY     57  54  89 CALM      30.13R
YOUNGSTOWN     MOSUNNY   57  53  86 CALM      30.11S
$$

OHZ042-051>053-060>062-070>072-077>081-251300-
  SOUTHWEST OHIO

CITY           SKY/WX    TMP DP  RH WIND       PRES   REMARKS
CINC-COVINGTON MOSUNNY   62  55  77 CALM      30.12R
CINC-LUNKEN    SUNNY     58  55  90 CALM      30.12S
HAMILTON       SUNNY     58  55  90 CALM      30.13R
DAYTON         NOT AVBL
WRIGHT-PAT AFB SUNNY     57  53  88 W1        30.13R
DAYTON GENERAL SUNNY     59  54  83 N3        30.13R
WILMINGTON     SUNNY     57  53  86 SE3       30.10F
$$

OHZ036-037-039>041-045>050-054>059-063>069-073>076-082>088-251300-
  CENTRAL AND SOUTHEAST OHIO

CITY           SKY/WX    TMP DP  RH WIND       PRES   REMARKS
COLUMBUS       MOSUNNY   60  51  72 N3        30.12R
OSU AIRPORT    SUNNY     59  53  80 N3        30.12S
BOLTON FIELD   SUNNY     57  54  88 CALM      30.13R
RICKENBACK AFB NOT AVBL
NEWARK         SUNNY     56  52  86 CALM      30.11F
MARION         SUNNY     56  52  86 CALM      30.11F
LANCASTER      MOSUNNY   57  53  86 CALM      30.12R
ZANESVILLE     SUNNY     56  51  84 CALM      30.11S
NEW PHILLY     SUNNY     54  52  93 CALM      30.12F
$$



USA.gov is the U.S. government's official web portal to all federal, state and local government web resources and services.